sat.trackr.live / text

‹ back to catalog

STARLINK-32230

NORAD 60366 · 2024-138M

PAYLOAD ACTIVE UNKNOWN

§ Identity

Operator
Country
US
Launch date
2024-08-04
Launch site
AFWTR
Launch vehicle
Mass (kg)
RCS (m²)

Purposes: comms

External: N2YO · Heavens-Above · Gunter

§ Orbital elements

Epoch: 2026-09-21T20:03:54.306144Z

Period
93.85 min
Inclination
53.1596°
Eccentricity
0.0001276
Mean motion
15.34388614 rev/d
Perigee alt
461.9 km
Apogee alt
463.6 km
Semi-major
6,840.9 km
B*
2.1230e-5
RAAN
117.4501°
Arg perigee
90.5580°
Mean anomaly
269.5568°
Rev number
12,067

§ Raw data

STARLINK-322301 60366U 24138M   26264.83604521  .00000341  00000+0  21230-4 0  99972 60366  53.1596 117.4501 0001276  90.5580 269.5568 15.34388614120674

JSON: /api/v1/satellites/60366 · /tle

For live sub-satellite position, see the globe view (requires WebGL).

§ Visibility from observer

Set your observer location to see the next 7 days of passes ≥ 10°. The values pass through the URL so the page stays shareable.

No JS? Fill the form by hand. The geolocation button needs JavaScript.